Location: Home
(42.5358°N, 72.7383°W)
Time: 15:33:51
(UTC-05:00)

Vanguard 1 - Pass Details

Date: 07 December 2021
Orbit: 652 x 3830 km, 34.2° (Epoch: 19 January)

Event Time Altitude Azimuth Distance (km) Brightness Sun altitude
Rises 05:44:48 0° 284° (WNW) 7,876 - -14.7°
Reaches altitude 10° 05:51:44 10° 275° (W) 6,586 - -13.5°
Exits shadow 05:53:06 12° 272° (W) 6,333 13.6 -13.2°
Maximum altitude 06:06:31 27° 228° (SW) 4,298 13.1 -10.9°
Drops below altitude 10° 06:16:48 10° 177° (S) 4,468 13.8 -9.2°
Sets 06:20:25 0° 164° (SSE) 5,032 14.3 -8.5°
